TimeEDT,TemperatureF,Dew PointF,Humidity,Sea Level PressureIn,VisibilityMPH,Wind Direction,Wind SpeedMPH,Gust SpeedMPH,PrecipitationIn,Events,Conditions,WindDirDegrees,DateUTC
12:14 AM,69.8,64.4,83,29.86,10.0,Calm,Calm,-,N/A,,Scattered Clouds,0,2013-06-12 04:14:00
12:34 AM,71.6,64.4,78,29.85,10.0,Calm,Calm,-,N/A,,Mostly Cloudy,0,2013-06-12 04:34:00
12:55 AM,71.6,64.4,78,29.85,10.0,WNW,3.5,-,N/A,,Overcast,300,2013-06-12 04:55:00
1:14 AM,71.6,64.4,78,29.85,10.0,WNW,3.5,-,N/A,,Mostly Cloudy,290,2013-06-12 05:14:00
1:34 AM,71.6,62.6,73,29.85,10.0,West,3.5,-,N/A,,Scattered Clouds,280,2013-06-12 05:34:00
1:54 AM,69.8,62.6,78,29.85,10.0,Calm,Calm,-,N/A,,Clear,0,2013-06-12 05:54:00
2:08 AM,69.8,62.6,78,29.85,10.0,Calm,Calm,-,N/A,,Clear,0,2013-06-12 06:08:00
2:21 AM,69.8,62.6,78,29.85,10.0,WNW,2.3,-,N/A,,Clear,300,2013-06-12 06:21:00
2:42 AM,69.8,62.6,78,29.85,10.0,Calm,Calm,-,N/A,,Clear,0,2013-06-12 06:42:00
2:54 AM,68.0,62.6,83,29.85,10.0,Calm,Calm,-,N/A,,Clear,0,2013-06-12 06:54:00
3:14 AM,66.2,62.6,88,29.85,10.0,Calm,Calm,-,N/A,,Clear,0,2013-06-12 07:14:00
3:34 AM,66.2,62.6,88,29.84,10.0,Calm,Calm,-,N/A,,Clear,0,2013-06-12 07:34:00
3:54 AM,64.4,60.8,88,29.85,10.0,Calm,Calm,-,N/A,,Clear,0,2013-06-12 07:54:00
4:14 AM,64.4,60.8,88,29.85,10.0,Calm,Calm,-,N/A,,Clear,0,2013-06-12 08:14:00
4:34 AM,64.4,60.8,88,29.85,10.0,Calm,Calm,-,N/A,,Clear,0,2013-06-12 08:34:00
4:54 AM,62.6,60.8,94,29.86,10.0,Calm,Calm,-,N/A,,Clear,0,2013-06-12 08:54:00
5:14 AM,64.4,60.8,88,29.87,10.0,Calm,Calm,-,N/A,,Clear,0,2013-06-12 09:14:00
5:34 AM,64.4,60.8,88,29.89,10.0,Calm,Calm,-,N/A,,Clear,0,2013-06-12 09:34:00
5:54 AM,64.4,60.8,88,29.88,10.0,Calm,Calm,-,N/A,,Clear,0,2013-06-12 09:54:00
6:14 AM,64.4,60.8,88,29.89,10.0,Calm,Calm,-,N/A,,Clear,0,2013-06-12 10:14:00
6:35 AM,66.2,60.8,83,29.88,10.0,Calm,Calm,-,N/A,,Clear,0,2013-06-12 10:35:00
6:54 AM,66.2,62.6,88,29.88,10.0,Calm,Calm,-,N/A,,Clear,0,2013-06-12 10:54:00
7:14 AM,68.0,62.6,83,29.88,10.0,Calm,Calm,-,N/A,,Clear,0,2013-06-12 11:14:00
7:34 AM,69.8,62.6,78,29.89,10.0,Calm,Calm,-,N/A,,Clear,0,2013-06-12 11:34:00
7:54 AM,69.8,62.6,78,29.90,10.0,NNW,3.5,-,N/A,,Clear,330,2013-06-12 11:54:00
8:15 AM,69.8,62.6,78,29.89,10.0,Calm,Calm,-,N/A,,Clear,0,2013-06-12 12:15:00
8:34 AM,71.6,62.6,73,29.88,10.0,NE,3.5,-,N/A,,Clear,50,2013-06-12 12:34:00
8:54 AM,71.6,62.6,73,29.88,10.0,NNE,3.5,-,N/A,,Clear,30,2013-06-12 12:54:00
9:15 AM,71.6,62.6,73,29.89,10.0,Calm,Calm,-,N/A,,Clear,0,2013-06-12 13:15:00
9:34 AM,71.6,62.6,73,29.91,10.0,Calm,Calm,-,N/A,,Clear,0,2013-06-12 13:34:00
9:54 AM,71.6,62.6,73,29.90,10.0,Calm,Calm,-,N/A,,Clear,0,2013-06-12 13:54:00
10:15 AM,69.8,62.6,78,29.90,10.0,Calm,Calm,-,N/A,,Clear,0,2013-06-12 14:15:00
10:34 AM,69.8,62.6,78,29.90,10.0,Calm,Calm,-,N/A,,Clear,0,2013-06-12 14:34:00
10:54 AM,69.8,64.4,83,29.89,10.0,SSW,4.6,-,N/A,,Clear,200,2013-06-12 14:54:00
11:14 AM,69.8,64.4,83,29.90,10.0,South,4.6,-,N/A,,Clear,190,2013-06-12 15:14:00
11:34 AM,71.6,64.4,78,29.92,10.0,SSW,3.5,-,N/A,,Clear,210,2013-06-12 15:34:00
11:54 AM,71.6,64.4,78,29.93,10.0,Calm,Calm,-,N/A,,Clear,0,2013-06-12 15:54:00
12:14 PM,71.6,64.4,78,29.92,10.0,Calm,Calm,-,N/A,,Clear,0,2013-06-12 16:14:00
12:34 PM,69.8,64.4,83,29.87,7.0,ESE,5.8,-,N/A,Rain,Light Rain,110,2013-06-12 16:34:00
12:54 PM,69.8,64.4,83,29.84,10.0,East,5.8,-,N/A,Rain,Light Rain,90,2013-06-12 16:54:00
1:14 PM,71.6,64.4,78,29.85,10.0,Calm,Calm,-,N/A,,Clear,0,2013-06-12 17:14:00
1:34 PM,71.6,64.4,78,29.83,10.0,SSE,6.9,-,N/A,,Clear,160,2013-06-12 17:34:00
1:54 PM,71.6,64.4,78,29.82,5.0,South,8.1,-,N/A,,Haze,180,2013-06-12 17:54:00
2:14 PM,69.8,64.4,83,29.86,4.0,Calm,Calm,-,N/A,,Haze,0,2013-06-12 18:14:00
2:34 PM,69.8,64.4,83,29.85,4.0,SE,3.5,-,N/A,Rain,Light Rain,140,2013-06-12 18:34:00
2:54 PM,69.8,64.4,83,29.87,5.0,South,3.5,-,N/A,,Haze,190,2013-06-12 18:54:00
3:14 PM,71.6,64.4,78,29.84,7.0,SSE,3.5,-,N/A,,Clear,150,2013-06-12 19:14:00
3:35 PM,69.8,64.4,83,29.85,5.0,Calm,Calm,-,N/A,,Haze,0,2013-06-12 19:35:00
3:54 PM,69.8,64.4,83,29.83,5.0,Calm,Calm,-,N/A,,Haze,0,2013-06-12 19:54:00
4:14 PM,71.6,64.4,78,29.82,7.0,SE,4.6,-,N/A,,Clear,130,2013-06-12 20:14:00
4:35 PM,71.6,66.2,83,29.81,7.0,Calm,Calm,-,N/A,,Clear,0,2013-06-12 20:35:00
4:54 PM,73.4,66.2,78,29.81,10.0,Calm,Calm,-,N/A,,Clear,0,2013-06-12 20:54:00
5:14 PM,73.4,66.2,78,29.81,10.0,Calm,Calm,-,N/A,,Clear,0,2013-06-12 21:14:00
5:34 PM,73.4,66.2,78,29.81,10.0,NE,5.8,-,N/A,,Scattered Clouds,40,2013-06-12 21:34:00
5:54 PM,73.4,66.2,78,29.81,7.0,NNE,4.6,-,N/A,,Mostly Cloudy,30,2013-06-12 21:54:00
6:14 PM,73.4,66.2,78,29.82,10.0,Calm,Calm,-,N/A,,Mostly Cloudy,0,2013-06-12 22:14:00
6:34 PM,71.6,66.2,83,29.81,7.0,ENE,4.6,-,N/A,Rain,Light Rain,70,2013-06-12 22:34:00
6:54 PM,71.6,66.2,83,29.79,5.0,East,5.8,-,N/A,Rain,Light Rain,80,2013-06-12 22:54:00
7:14 PM,71.6,66.2,83,29.77,5.0,East,4.6,-,N/A,,Haze,90,2013-06-12 23:14:00
7:34 PM,71.6,66.2,83,29.76,5.0,East,5.8,-,N/A,,Haze,80,2013-06-12 23:34:00
7:54 PM,69.8,66.2,88,29.76,5.0,East,3.5,-,N/A,,Mostly Cloudy,80,2013-06-12 23:54:00
8:14 PM,69.8,66.2,88,29.75,4.0,East,3.5,-,N/A,,Mostly Cloudy,100,2013-06-13 00:14:00
8:34 PM,69.8,64.4,83,29.74,5.0,ESE,4.6,-,N/A,,Overcast,120,2013-06-13 00:34:00
8:54 PM,69.8,64.4,83,29.75,5.0,East,4.6,-,N/A,,Haze,90,2013-06-13 00:54:00
9:14 PM,69.8,64.4,83,29.75,5.0,ENE,5.8,-,N/A,Rain,Light Rain,70,2013-06-13 01:14:00
9:34 PM,68.0,64.4,88,29.75,5.0,Calm,Calm,-,0.02,Rain,Light Rain,0,2013-06-13 01:34:00
9:54 PM,68.0,64.4,88,29.73,4.0,East,4.6,-,0.02,,Scattered Clouds,90,2013-06-13 01:54:00
10:15 PM,66.2,64.4,94,29.71,4.0,ENE,3.5,-,N/A,,Scattered Clouds,60,2013-06-13 02:15:00
10:34 PM,66.2,64.4,94,29.69,4.0,ENE,6.9,-,N/A,,Scattered Clouds,60,2013-06-13 02:34:00
10:54 PM,66.2,62.6,88,29.68,4.0,East,5.8,-,N/A,,Mostly Cloudy,100,2013-06-13 02:54:00
11:14 PM,66.2,62.6,88,29.67,3.0,ESE,3.5,-,N/A,,Mostly Cloudy,110,2013-06-13 03:14:00
11:34 PM,66.2,62.6,88,29.67,4.0,ENE,4.6,-,N/A,,Overcast,60,2013-06-13 03:34:00
11:54 PM,66.2,62.6,88,29.66,4.0,Calm,Calm,-,N/A,,Overcast,0,2013-06-13 03:54:00